Карточка аэропорта UWGG

Внимание!
Информация на этой странице в стадии наполнения.
Если вы не увидели какой-то информации, или заметили неточность - пожалуйста сообщите нам!
Спасибо!
Команда RU-STAFF
Название аэропортаСтригино
Название аэропорта (англ.)Strigino
Превышение256 ft. (78 m.)
Координаты56°13.8', 43°47.202'
Высота перехода5000 ft
Эшелон переходаQNH>=1013hPa:FL060; QNH<1013hPa:FL070; QNH<977hPa:FL080
Коды ответчика2120-2147
Зона ОрВДМосква РПИ (UUWV)
Данные METARUWGG 191030Z 11002MPS 010V150 9999 FEW040CB 27/13 Q1009 R36R/090070 NOSIG
Проноз погоды (TAF)UWGG 190750Z 1909/2009 32003G09MPS 9999 SCT040CB TX29/1912Z TN16/2001Z TEMPO 1918/2009 34008G13MPS 4000 -TSRA
NOTAMshow/hide NOTAM
AWOS   TABLE

Информация о ВПП

ВПП Длина ВПП (м.) Покрытие Курс ВПП Частота ILS
36R3000Цементобетон359110.5
36L2806Асфальтобетон359109.5
18L3000Цементобетон179108.1
18R2806Асфальтобетон179109.9

Диспетчерские позиции

Позывной Наименование органа УВД Частота
UWGG_TWRНижний-Вышка120.400
UWGG_R_APPНижний-Круг120.800
UWGG_APPНижний-Подход124.700
UWGG_GNDНижний-Руление121.800



Спутниковое изображение